Change the Weather History Date:

Saturday, August 9, 2014

  Actual Average Record
Temperature  
Mean Temperature 71 °F -  
Max Temperature 75 °F 88 °F 105 °F (2007)
Min Temperature 67 °F 68 °F 55 °F (2002)
Cooling Degree Days 6    
Growing Degree Days 21 (Base 50)    
Moisture  
Dew Point 68 °F    
Average Humidity 92    
Maximum Humidity 100    
Minimum Humidity 73    
Precipitation  
Precipitation 0.95 in - - ()
Sea Level Pressure  
Sea Level Pressure 30.09 in    
Wind  
Wind Speed 4 mph (ENE)    
Max Wind Speed 10 mph    
Max Gust Speed -    
Visibility 7 miles    
Events Rain    
Averages and records for this station are not official NWS values.
T = Trace of Precipitation, MM = Missing Value Source: NWS Daily Summary

Daily Weather History Graph

Daily Weather History Graph

Search for Another Location

Airport or City:

Trip Planner

Search our weather history database for the weather conditions in past years. The results will help you decide how hot, cold, wet, or windy it might be!

Date:

Astronomy

Aug. 09, 2014 Rise Set
Actual Time 6:29 AM EDT 8:10 PM EDT
Civil Twilight 6:02 AM EDT 8:37 PM EDT
Nautical Twilight 5:29 AM EDT 9:10 PM EDT
Astronomical Twilight 4:54 AM EDT 9:45 PM EDT
Moon 7:11 PM EDT (8/9) 5:08 AM EDT (8/9)
Length of Visible Light 14h 35m
Length of Day
13h 40m
Waxing Gibbous, 98% of the Moon is Illuminated
Aug 9
Waxing Gibbous
Aug 10
Full
Aug 17
Last Quarter
Aug 25
New
Sep 2
First Quarter

Hourly Weather History & Observations

Time (EDT) Temp. Dew Point Humidity Pressure Visibility Wind Dir Wind Speed Gust Speed Precip Events Conditions
12:15 AM 75.6 °F 66.2 °F 73% 30.09 in 10.0 mi East 4.6 mph - N/A   Overcast
12:35 AM 75.2 °F 66.0 °F 73% 30.09 in 10.0 mi East 3.5 mph - N/A   Overcast
12:55 AM 75.2 °F 65.8 °F 73% 30.10 in 10.0 mi Calm Calm - N/A   Overcast
1:35 AM 74.7 °F 66.4 °F 75% 30.10 in 10.0 mi Calm Calm - N/A   Overcast
1:55 AM 74.8 °F 66.2 °F 74% 30.10 in 10.0 mi Calm Calm - N/A   Overcast
2:15 AM 74.3 °F 66.6 °F 77% 30.08 in 10.0 mi East 4.6 mph - N/A   Overcast
2:35 AM 74.3 °F 66.4 °F 76% 30.07 in 10.0 mi East 4.6 mph - N/A   Overcast
2:55 AM 73.2 °F 67.5 °F 82% 30.05 in 7.0 mi ENE 3.5 mph - N/A   Light Drizzle
3:15 AM 73.0 °F 67.6 °F 83% 30.05 in 10.0 mi ENE 4.6 mph - N/A   Mostly Cloudy
3:35 AM 72.9 °F 67.1 °F 82% 30.05 in 10.0 mi Calm Calm - N/A   Scattered Clouds
3:55 AM 72.9 °F 67.3 °F 83% 30.06 in 10.0 mi SSE 3.5 mph - N/A   Mostly Cloudy
4:15 AM 72.5 °F 68.9 °F 88% 30.06 in 10.0 mi Calm Calm - N/A   Overcast
4:35 AM 72.7 °F 67.1 °F 83% 30.06 in 10.0 mi Calm Calm - N/A   Overcast
4:55 AM 72.0 °F 69.3 °F 91% 30.06 in 10.0 mi Calm Calm - N/A   Overcast
5:15 AM 72.0 °F 70.0 °F 93% 30.06 in 10.0 mi Calm Calm - N/A   Overcast
5:35 AM 72.5 °F 68.9 °F 88% 30.06 in 10.0 mi Calm Calm - N/A   Overcast
5:55 AM 72.5 °F 68.4 °F 87% 30.07 in 10.0 mi Calm Calm - N/A   Overcast
6:15 AM 72.5 °F 68.2 °F 86% 30.07 in 10.0 mi Calm Calm - N/A   Overcast
6:35 AM 72.5 °F 68.5 °F 87% 30.07 in 10.0 mi Calm Calm - N/A   Light Drizzle
6:55 AM 72.1 °F 67.6 °F 86% 30.08 in 10.0 mi Calm Calm - N/A   Overcast
7:15 AM 72.1 °F 67.6 °F 86% 30.08 in 10.0 mi ENE 3.5 mph - N/A   Overcast
7:35 AM 72.1 °F 68.0 °F 87% 30.08 in 10.0 mi NE 5.8 mph - N/A   Overcast
7:55 AM 71.8 °F 69.1 °F 91% 30.09 in 7.0 mi ENE 5.8 mph - N/A Rain Rain
8:15 AM 70.0 °F 69.3 °F 98% 30.10 in 1.5 mi ENE 3.5 mph - 0.17 in Rain Heavy Rain
8:35 AM 69.4 °F 68.5 °F 97% 30.10 in 5.0 mi Calm Calm - 0.20 in Rain Rain
8:55 AM 70.0 °F 68.4 °F 95% 30.10 in 10.0 mi NE 6.9 mph - 0.21 in   Light Drizzle
9:15 AM 70.0 °F 68.7 °F 96% 30.10 in 7.0 mi ENE 6.9 mph - N/A Rain Light Rain
9:35 AM 69.1 °F 68.5 °F 98% 30.11 in 5.0 mi Calm Calm - 0.02 in   Overcast
9:55 AM 68.9 °F 67.6 °F 96% 30.13 in 7.0 mi West 6.9 mph - 0.03 in Rain Light Rain
10:15 AM 67.6 °F 67.1 °F 98% 30.13 in 1.0 mi NNE 4.6 mph - 0.18 in Rain Heavy Rain
10:35 AM 67.1 °F 66.4 °F 98% 30.12 in 5.0 mi NE 10.4 mph - 0.23 in Rain Light Rain
10:55 AM 68.7 °F 68.0 °F 98% 30.12 in 7.0 mi NE 9.2 mph - 0.24 in   Overcast
11:15 AM 69.3 °F 67.1 °F 93% 30.12 in 10.0 mi NE 10.4 mph - N/A   Overcast
11:35 AM 68.9 °F 66.4 °F 92% 30.13 in 10.0 mi East 8.1 mph - N/A   Overcast
11:55 AM 68.7 °F 65.8 °F 90% 30.13 in 10.0 mi East 8.1 mph - N/A   Overcast
12:15 PM 68.4 °F 66.4 °F 93% 30.13 in 7.0 mi ENE 4.6 mph - N/A   Drizzle
12:35 PM 67.5 °F 66.2 °F 96% 30.13 in 2.0 mi ENE 4.6 mph - 0.08 in Rain Light Rain
12:55 PM 67.3 °F 66.7 °F 98% 30.12 in 4.0 mi East 6.9 mph - 0.10 in Rain Rain
1:15 PM 67.6 °F 67.1 °F 98% 30.12 in 4.0 mi ENE 4.6 mph - 0.01 in Rain Rain
1:35 PM 67.5 °F 66.9 °F 98% 30.12 in 4.0 mi NE 6.9 mph - 0.03 in Rain Light Rain
1:55 PM 67.8 °F 66.9 °F 97% 30.12 in 4.0 mi ENE 5.8 mph - 0.04 in Rain Light Rain
2:15 PM 67.5 °F 66.6 °F 97% 30.11 in 3.0 mi East 6.9 mph - 0.02 in Rain Rain
2:35 PM 67.3 °F 66.2 °F 96% 30.11 in 4.0 mi ENE 8.1 mph - 0.04 in Rain Light Rain
2:55 PM 67.6 °F 66.7 °F 97% 30.10 in 4.0 mi ENE 8.1 mph - 0.05 in Rain Light Rain
3:15 PM 68.4 °F 66.9 °F 95% 30.10 in 7.0 mi ENE 10.4 mph - 0.01 in   Light Drizzle
3:35 PM 68.5 °F 67.3 °F 96% 30.09 in 7.0 mi East 9.2 mph - 0.01 in   Light Drizzle
3:50 PM 68.5 °F 67.1 °F 95% 30.08 in 7.0 mi East 8.1 mph - 0.01 in   Overcast
4:15 PM 68.4 °F 66.7 °F 95% 30.08 in 10.0 mi ENE 6.9 mph - N/A   Overcast
4:35 PM 68.5 °F 67.3 °F 96% 30.07 in 7.0 mi ENE 4.6 mph - N/A Rain Rain
5:15 PM 68.5 °F 68.2 °F 99% 30.07 in 2.5 mi NE 6.9 mph - 0.03 in   Drizzle
5:35 PM 68.4 °F 68.0 °F 99% 30.06 in 2.0 mi East 3.5 mph - 0.08 in Rain Rain
5:55 PM 68.2 °F 68.0 °F 99% 30.06 in 2.0 mi East 5.8 mph - 0.16 in Rain Rain
6:15 PM 68.4 °F 68.2 °F 99% 30.05 in 3.0 mi ESE 5.8 mph - 0.03 in Rain Light Rain
6:35 PM 68.5 °F 68.2 °F 99% 30.05 in 4.0 mi ESE 5.8 mph - 0.04 in   Drizzle
6:55 PM 68.9 °F 68.2 °F 98% 30.06 in 4.0 mi ENE 3.5 mph - 0.05 in   Drizzle
7:15 PM 68.9 °F 68.2 °F 98% 30.06 in 5.0 mi Calm Calm - N/A   Light Drizzle
7:35 PM 68.9 °F 68.4 °F 98% 30.06 in 5.0 mi ENE 4.6 mph - N/A   Overcast
7:55 PM 68.9 °F 68.4 °F 98% 30.07 in 5.0 mi ENE 4.6 mph - N/A   Overcast
8:15 PM 68.9 °F 68.2 °F 98% 30.08 in 7.0 mi NE 3.5 mph - N/A   Overcast
8:35 PM 68.9 °F 68.4 °F 98% 30.08 in 7.0 mi ENE 3.5 mph - N/A   Overcast
8:55 PM 68.9 °F 68.4 °F 98% 30.09 in 7.0 mi ENE 3.5 mph - N/A   Light Drizzle
9:15 PM 68.9 °F 68.7 °F 99% 30.10 in 7.0 mi Calm Calm - N/A   Light Drizzle
9:35 PM 68.9 °F 68.9 °F 100% 30.09 in 5.0 mi NE 4.6 mph - 0.01 in   Drizzle
9:55 PM 68.7 °F 68.4 °F 99% 30.10 in 5.0 mi ENE 4.6 mph - 0.01 in   Light Drizzle
10:15 PM 68.5 °F 68.4 °F 99% 30.10 in 4.0 mi ENE 6.9 mph - 0.02 in Rain Rain
10:35 PM 68.4 °F 68.2 °F 99% 30.10 in 4.0 mi ENE 6.9 mph - 0.03 in   Light Drizzle
10:55 PM 68.0 °F 68.0 °F 100% 30.10 in 4.0 mi NE 4.6 mph - 0.04 in   Drizzle
11:15 PM 68.0 °F 67.6 °F 99% 30.10 in 4.0 mi NNE 3.5 mph - 0.01 in   Light Drizzle